Lid_Strength_Index
1 1 2 2 2 2 2 2 3 3 3 3 3 2 2 2 2 2 2 2 1 1 1 1 1 0 1 3 3 0 -4 -3 -0 0 1 2 3 4 5 4 4 5 5 4 4 4 4
1 1 2 2 2 2 2 2 2 3 3 3 3 3 2 2 2 2 2 2 2 2 2 1 0 0 1 5 1 0 1 1 1 1 2 2 3 2 4 4 5 4 4 4 4 4 4
1 1 1 2 2 2 2 2 3 3 3 3 3 3 2 2 2 2 2 2 2 2 1 0 -1 0 2 3 1 0 0 1 1 1 2 1 1 3 3 5 3 4 5 5 4 4 5
1 1 1 2 2 2 2 2 3 3 2 2 3 3 2 2 2 2 2 2 2 1 1 -0 -1 0 3 1 -0 1 0 1 0 1 1 1 1 2 3 3 4 5 5 7 5 4 4
1 1 2 2 2 2 2 2 2 3 3 2 2 2 2 2 2 2 2 2 1 0 -1 -1 0 1 4 0 2 1 0 2 1 1 1 1 1 3 3 5 6 6 8 8 7 4 5
1 1 2 2 2 3 3 3 3 3 3 2 2 2 2 2 2 2 2 2 1 1 1 0 2 3 3 3 2 1 0 1 2 2 2 3 3 5 5 6 9 8 8 7 8 5 5
1 1 2 2 2 3 3 3 3 3 3 3 2 2 2 2 2 2 2 0 2 3 2 3 3 3 3 1 1 2 1 2 2 3 5 4 6 7 6 5 6 6 7 8 7 5 6
1 1 2 2 2 2 3 3 3 3 3 3 3 2 2 2 2 2 1 2 2 1 4 3 2 2 2 1 3 2 0 3 4 5 5 5 7 5 5 5 6 6 7 7 6 6 6
1 2 2 2 2 2 2 3 3 3 3 3 3 3 3 2 2 1 0 1 -1 -0 4 4 2 3 3 2 4 3 2 3 5 6 6 7 6 5 6 6 7 7 7 7 8 6 6
1 1 2 2 2 3 2 3 3 3 3 4 4 3 3 3 2 -1 1 -0 -1 -0 6 6 4 3 2 2 4 2 2 3 4 6 6 6 5 6 6 7 6 8 6 7 7 8 10
1 1 2 2 2 2 3 3 3 3 3 4 4 4 3 4 0 1 0 -1 -1 1 13 5 4 1 2 4 3 3 1 3 6 6 6 7 6 7 7 7 6 7 6 7 7 8 8
1 1 2 2 2 2 3 3 3 3 3 4 4 4 4 1 -0 -0 -1 -1 0 8 12 7 4 5 5 4 4 3 3 2 3 5 5 6 4 5 6 5 6 6 7 6 6 8 11
1 1 2 2 2 2 3 3 3 3 3 4 4 4 3 0 1 -1 -1 1 7 10 6 7 6 5 5 6 5 5 5 6 7 9 8 7 6 5 5 6 5 6 7 11 12 11 12
2 2 2 2 2 2 3 3 3 3 4 4 5 5 3 -0 -1 -1 0 5 11 8 7 5 6 5 7 6 6 6 6 7 6 6 8 9 11 7 6 6 8 8 8 11 14 13 11
1 2 2 2 2 2 3 3 3 3 4 4 5 -1 -0 -1 -1 -1 3 8 8 7 6 6 6 7 7 6 6 6 7 7 6 6 9 9 10 7 6 6 7 8 8 7 9 9 11
1 1 2 2 2 2 2 3 3 3 4 4 0 1 1 -1 -2 1 5 8 7 5 5 5 8 7 8 7 7 7 7 6 7 5 5 7 10 7 6 6 6 7 6 10 9 15 14
1 1 2 2 2 2 2 2 3 3 4 5 1 3 1 -2 -1 3 7 6 6 4 4 6 7 8 7 8 7 7 8 6 6 6 5 6 8 8 7 8 8 7 8 8 8 10 13
1 1 1 1 2 2 2 2 3 3 5 2 1 5 -0 -1 5 4 6 5 8 5 4 5 5 6 7 7 7 7 8 7 5 5 7 6 8 10 8 6 6 6 7 8 11 13 10
1 1 1 1 1 2 2 2 3 3 4 2 3 3 -0 0 7 6 5 5 5 5 5 6 6 6 5 7 8 7 7 5 5 5 7 6 9 12 10 8 6 8 7 7 7 9 12
1 1 1 1 1 2 2 2 2 3 4 2 3 5 3 2 3 5 6 6 6 4 5 5 5 5 6 7 6 7 7 6 5 5 6 5 7 9 12 9 7 9 8 7 7 12 12
1 1 1 1 1 1 1 2 2 3 3 1 2 4 4 6 5 5 5 6 6 7 4 4 6 6 6 8 7 7 6 6 5 6 5 6 9 8 7 7 7 8 8 8 8 8 11
1 1 1 1 1 1 1 1 2 3 4 1 4 4 2 4 4 5 7 6 6 6 6 6 6 6 5 7 7 8 6 6 7 5 6 5 9 7 9 7 7 8 7 7 7 7 8
3 2 1 1 1 1 1 1 1 2 3 1 1 1 3 5 5 6 5 6 6 5 5 4 5 5 6 6 4 4 4 4 5 6 6 7 8 9 11 8 9 11 8 8 7 7 7
3 2 2 2 1 1 1 1 1 1 2 0 1 2 4 6 5 5 5 5 5 5 5 5 4 5 4 3 4 4 5 5 5 5 5 7 8 8 11 9 14 9 6 6 7 6 6
2 2 2 2 2 2 2 2 1 1 2 -0 -0 2 4 6 4 5 5 5 4 4 5 5 4 3 3 4 6 8 8 8 7 6 5 5 7 10 12 11 9 8 8 8 11 9 6
3 2 2 2 2 2 2 2 2 1 1 -0 -1 -0 2 5 4 4 5 4 6 5 5 4 3 2 3 5 7 10 11 9 10 9 6 6 6 9 10 13 15 9 6 5 5 12 6
3 3 2 3 3 2 2 2 2 1 0 0 -0 -2 2 4 3 3 5 5 3 4 5 4 4 4 3 6 8 9 10 7 10 10 10 10 9 11 10 11 9 6 5 5 12 11 5
3 3 3 2 2 3 2 2 2 2 2 1 -0 -2 1 4 3 2 2 4 4 4 6 4 5 5 6 8 8 8 9 8 8 7 8 9 10 11 9 11 12 5 6 11 6 4 4
4 3 3 2 2 2 2 2 2 2 2 3 2 -1 -1 2 3 1 1 0 1 2 4 3 4 5 4 6 6 6 8 7 8 11 6 10 7 9 9 8 6 4 5 3 3 4 4